RH
57 69 92 89 82 61 70 64 79 68 58 38 35 33 32 29 28 26 26 21 19 20 22 21 23 23 24 29 28 39 40 50 70 71 69 75 79 78 82 95 97 98 99 100
78 60 67 99 69 64 53 39 38 39 49 31 28 26 28 28 26 26 23 18 18 18 18 21 21 23 26 28 33 37 44 55 67 68 66 73 76 83 84 86 97 96 98 100
73 94 79 78 99 70 66 58 41 51 42 31 30 30 31 30 28 25 20 18 20 20 20 21 22 23 28 27 31 36 49 63 69 69 73 78 80 78 80 91 94 97 99 100
66 89 100 99 84 86 69 63 54 38 36 34 29 27 29 27 28 25 20 19 20 20 20 20 21 24 27 24 31 36 56 69 70 74 78 83 84 88 87 92 86 88 93 100
82 96 99 96 90 95 93 75 57 53 40 34 29 28 33 30 26 23 20 19 19 18 19 20 22 23 22 25 30 38 68 75 75 79 83 88 92 93 94 86 80 85 89 95
96 81 100 86 74 78 77 81 57 56 46 41 31 30 36 29 26 22 17 17 18 17 16 19 21 22 24 27 32 49 85 76 76 82 86 92 94 92 91 77 81 78 87 90
100 82 92 65 70 62 92 88 64 56 47 44 44 37 33 26 23 19 16 16 17 16 17 19 19 22 24 27 39 59 90 77 78 88 92 89 87 86 91 80 74 82 87 88
95 85 98 62 50 72 71 60 59 53 47 47 42 33 29 26 24 20 16 15 15 16 17 19 19 22 22 26 36 67 93 84 79 85 94 85 87 89 92 79 78 79 78 85
88 87 69 72 70 58 56 57 54 50 42 44 41 34 28 27 25 21 17 16 16 15 17 18 19 21 24 26 25 74 93 95 90 80 84 87 91 94 93 83 78 80 76 80
97 93 88 74 59 51 46 50 45 41 41 41 40 34 29 27 25 22 18 18 18 17 17 19 20 20 24 25 22 60 92 96 98 85 81 84 90 91 95 96 88 81 80 85
94 73 61 53 48 50 48 45 42 40 40 40 37 29 28 27 26 23 21 19 19 18 19 18 18 20 23 25 23 30 84 96 98 91 82 80 94 96 96 98 97 86 83 80
79 71 78 65 54 54 51 45 42 43 42 37 36 30 27 27 27 24 25 22 21 20 20 19 18 20 23 27 24 29 58 91 97 95 82 81 83 92 93 94 96 96 94 86
89 73 75 66 62 48 46 43 38 40 38 37 33 29 27 27 28 41 25 24 23 22 22 20 20 23 25 28 28 31 34 77 87 91 92 93 88 90 94 92 91 95 95 96
74 68 62 54 51 40 36 32 38 32 33 34 31 28 29 27 28 28 28 25 23 23 24 22 21 26 30 30 29 35 37 72 87 94 92 91 90 91 91 96 98 99 94 96
63 54 53 47 42 36 30 26 28 30 30 31 28 28 28 29 32 33 29 27 24 24 26 24 25 28 31 33 33 39 42 47 72 92 98 96 90 89 89 91 94 96 93 93
56 56 53 55 49 42 36 30 29 28 28 29 29 31 31 35 36 33 31 31 34 32 27 30 30 35 39 35 39 47 56 72 69 72 84 90 90 89 91 91 94 95 96 97
64 75 73 76 67 55 48 41 36 35 32 32 34 32 32 35 32 33 32 33 33 35 30 30 34 35 38 39 41 50 52 57 71 53 63 77 82 89 87 91 93 95 96 96
48 60 64 68 74 68 57 52 48 45 44 42 39 37 46 45 39 38 37 35 36 36 33 32 34 35 35 38 41 46 45 46 45 56 54 59 68 70 78 80 88 94 96 96
44 43 47 49 57 66 63 58 55 55 56 47 46 48 61 66 55 45 38 55 63 38 40 35 64 45 29 52 56 47 41 42 43 50 48 62 53 50 62 69 73 78 83 90
58 53 42 44 45 51 57 60 61 67 73 68 62 70 60 100 91 69 40 45 49 53 43 45 38 31 32 43 62 41 48 45 48 57 65 52 55 60 54 62 72 76 77 75
54 58 54 43 43 45 48 45 52 56 67 95 82 97 93 60 77 80 45 43 57 69 62 64 43 34 29 38 36 48 50 53 58 58 69 68 69 57 61 64 71 87 97 85
35 46 52 52 43 42 40 40 44 53 60 92 100 100 97 73 72 58 70 73 66 92 78 46 59 84 56 78 44 55 53 41 48 55 60 67 75 98 100 89 97 99 100 100
32 36 44 47 46 45 44 44 46 47 56 68 78 60 57 72 65 72 71 72 76 84 64 66 94 98 91 65 62 65 60 58 58 58 64 81 83 96 75 71 80 92 100 81
31 32 38 41 40 41 42 42 40 43 48 48 62 59 54 55 57 55 56 77 91 97 90 93 97 99 100 76 80 81 79 72 70 71 68 88 100 100 86 99 79 86 96 100
28 28 30 40 42 41 40 39 37 38 40 48 52 53 56 53 60 57 62 69 86 79 78 96 100 100 95 89 86 85 84 83 81 91 74 85 87 100 100 94 100 100 100 100
28 28 28 33 36 37 37 39 42 43 46 49 52 62 67 67 64 62 66 78 71 86 87 96 96 94 95 96 97 91 82 75 76 77 84 78 80 78 100 93 100 99 100 100
27 58 28 28 27 29 34 38 40 44 49 55 59 60 62 69 75 74 83 84 80 83 95 100 94 90 89 92 93 94 95 93 90 79 79 85 92 100 100 100 100 100 100 100
Wind_Speed
13 14 7 7 11 11 12 7 5 5 9 9 8 8 8 8 9 11 13 13 13 13 13 14 15 16 15 15 16 16 15 17 15 13 12 10 10 10 10 10 8 8 7 6
11 13 16 11 12 12 14 11 10 9 9 8 7 8 10 11 12 13 14 14 14 14 15 15 16 16 17 17 17 15 17 16 14 13 13 12 12 12 11 10 11 10 7 6
7 0 4 7 9 11 11 10 11 8 8 8 9 10 12 12 13 14 14 14 14 15 15 16 16 17 17 17 15 14 18 15 14 13 13 13 12 12 13 12 9 10 9 8
6 4 2 3 6 8 8 11 10 10 11 10 8 7 10 12 13 13 13 14 13 13 14 16 17 17 15 17 15 16 17 15 14 14 13 13 13 13 13 11 10 10 10 9
4 3 6 4 4 4 6 9 12 13 12 11 8 4 14 12 12 12 12 11 12 12 13 15 16 17 16 16 15 17 18 14 14 14 13 13 12 12 11 11 11 11 10 12
2 4 3 4 5 3 4 2 14 13 12 13 17 6 11 12 11 11 11 11 13 13 14 15 16 16 16 16 17 18 16 13 13 13 12 12 11 10 9 9 11 10 11 12
3 5 5 7 5 9 5 6 12 11 11 11 10 8 8 9 10 9 10 12 12 12 13 15 16 17 17 17 17 15 13 12 13 13 12 11 10 9 9 8 11 10 12 13
4 4 6 12 3 3 5 7 9 10 9 9 9 7 7 8 9 10 11 12 13 12 13 14 16 16 17 18 15 15 11 11 12 11 10 10 11 10 11 7 10 10 12 11
6 4 7 5 1 3 4 8 8 9 9 8 8 7 7 7 9 9 10 11 11 12 13 14 15 16 17 17 14 13 12 11 11 11 11 12 11 11 8 7 8 7 8 9
3 6 7 5 5 5 8 9 11 9 9 7 7 6 6 7 8 8 10 10 11 12 13 14 14 16 15 16 16 13 13 10 8 10 10 10 9 8 8 8 5 7 8 8
2 2 8 3 5 9 13 12 10 9 7 6 6 5 5 7 8 8 9 9 10 11 12 14 14 15 16 16 16 13 11 9 8 8 10 9 7 10 8 10 11 6 7 7
3 9 7 10 11 16 14 12 10 8 7 3 4 6 5 6 7 8 8 9 10 11 12 13 14 15 15 16 16 14 10 8 7 7 7 7 7 5 16 20 22 22 18 9
5 12 13 16 17 15 12 11 8 5 4 3 2 4 5 6 7 4 8 9 9 10 11 11 12 14 15 15 15 15 14 9 7 7 7 7 7 7 7 8 16 22 18 16
8 11 8 12 12 12 9 6 1 3 4 3 4 4 5 6 5 8 8 8 8 9 9 10 11 13 13 14 14 15 13 10 7 7 6 6 6 7 6 6 6 6 11 12
13 6 8 11 11 12 10 8 9 8 7 6 5 6 6 7 8 7 7 7 6 8 9 9 11 12 12 12 13 13 12 9 6 5 5 6 6 6 6 6 6 5 5 6
10 11 13 13 14 13 12 12 10 9 7 6 6 7 6 6 5 6 6 7 9 8 9 9 9 10 11 11 11 9 9 8 6 4 6 7 7 7 6 6 6 6 6 6
12 14 14 14 14 14 13 12 11 11 9 8 7 6 6 5 4 6 7 7 7 7 7 8 8 8 8 10 10 7 7 8 7 8 6 5 6 7 7 6 6 6 6 7
10 9 9 9 11 12 12 12 11 11 10 9 6 6 6 7 8 7 7 7 7 8 8 7 7 6 8 9 9 7 7 7 8 8 7 7 5 6 7 8 7 6 6 7
12 12 12 13 12 11 12 12 12 12 12 11 10 8 8 7 8 8 6 5 4 9 9 8 4 5 7 7 7 6 7 8 8 8 8 7 8 8 6 7 7 6 5 5
10 12 11 13 13 13 12 12 12 13 14 13 10 10 8 4 5 6 5 8 10 9 8 7 6 5 6 4 6 5 6 7 7 6 6 7 7 7 7 8 7 6 7 7
7 8 11 12 12 12 12 11 11 12 12 10 12 10 9 9 6 6 7 5 11 13 10 3 4 6 4 5 4 4 4 4 5 5 5 6 5 7 7 6 6 6 4 4
6 6 6 7 10 11 12 13 12 11 11 9 6 5 7 12 12 6 10 10 9 10 10 6 10 11 7 7 4 3 3 4 4 3 3 3 4 4 4 4 5 3 4 5
6 5 6 6 5 5 6 8 9 11 10 10 9 12 10 6 6 8 8 11 9 11 9 9 8 9 8 4 3 3 4 3 2 3 3 3 2 1 1 2 3 3 3 3
5 5 5 4 4 6 8 8 7 7 7 8 8 9 9 8 7 7 6 5 7 8 6 7 9 9 7 4 4 3 3 3 2 2 1 2 1 1 1 1 0 1 1 2
4 4 4 5 4 5 6 6 4 7 7 7 8 7 8 7 6 7 7 8 6 9 8 8 8 10 8 7 6 5 4 4 3 1 3 1 1 2 2 3 1 2 2 2
4 4 3 4 4 5 6 6 6 7 7 7 6 6 6 6 6 6 7 7 9 9 9 7 7 7 6 6 7 8 6 6 4 3 3 4 3 3 4 3 4 4 4 3
2 3 3 4 5 5 6 6 7 7 6 7 6 5 5 5 5 6 5 7 7 7 7 6 6 7 7 6 6 5 6 8 7 5 6 4 3 2 3 3 3 4 3 4
Wind_Direction
82 97 74 56 54 80 87 89 70 131 52 49 32 34 25 15 1 5 11 10 9 360 354 349 347 345 343 342 354 357 343 346 349 344 340 334 319 323 345 339 324 326 312 289
87 107 88 55 50 48 33 66 104 90 57 23 34 25 13 14 8 13 12 8 6 1 354 348 346 345 351 346 1 347 355 348 356 349 345 347 349 353 350 352 345 339 335 325
142 286 317 68 3 47 70 39 22 45 34 4 22 20 22 10 14 14 9 5 4 1 351 344 347 353 348 353 355 358 1 1 358 353 353 354 355 355 2 5 346 14 11 10
142 160 141 93 7 335 59 59 19 5 17 3 2 49 32 26 18 10 5 1 1 358 349 345 353 354 347 359 360 6 8 4 1 356 359 358 358 358 4 352 30 34 34 37
197 74 115 138 22 343 360 50 27 1 360 354 344 247 68 33 16 10 2 359 356 357 352 348 354 353 357 1 10 12 9 5 1 2 1 357 354 0 12 12 38 42 47 54
297 144 108 42 350 272 265 100 20 4 355 354 344 61 32 14 19 3 4 3 353 356 354 353 357 355 5 7 17 17 5 4 8 2 1 355 1 9 11 35 45 53 56 65
333 98 96 5 338 236 271 19 348 345 348 355 6 10 0 2 11 4 3 3 353 360 358 0 357 1 9 12 38 20 4 9 7 8 6 1 7 12 15 39 61 55 60 59
326 89 98 13 203 341 28 344 328 342 349 351 344 353 5 12 6 5 1 5 0 6 3 4 3 4 9 16 53 32 10 17 12 12 13 9 13 14 5 53 57 67 70 69
10 42 3 1 5 338 279 332 334 332 341 346 331 355 3 7 11 2 11 8 4 6 4 7 8 11 10 12 34 57 14 19 11 13 25 20 14 20 9 38 60 57 71 76
317 357 336 316 295 253 325 329 324 323 330 328 336 341 356 14 14 10 13 13 1 4 8 7 8 15 15 12 20 81 31 19 5 17 20 28 23 22 21 12 67 68 68 81
261 341 310 197 9 347 333 320 318 322 323 324 321 351 359 17 16 13 19 10 10 11 8 7 7 15 18 12 22 50 60 24 15 15 23 24 35 30 29 34 32 45 98 104
355 346 323 302 337 325 313 317 319 315 316 326 321 351 359 31 20 14 21 13 12 14 10 8 9 12 19 15 22 32 79 32 16 18 23 26 23 41 46 46 39 38 39 68
277 321 298 286 287 295 315 306 305 319 310 335 38 357 17 28 37 351 20 23 17 16 13 8 12 11 16 17 23 32 45 68 21 23 23 24 25 26 35 37 42 40 45 55
288 287 328 349 340 326 324 327 102 75 75 59 33 46 32 27 38 28 28 23 18 19 16 13 16 18 13 13 29 33 33 82 59 30 28 27 26 31 33 35 37 28 25 37
323 340 343 357 350 2 1 55 63 65 67 61 47 40 36 22 34 29 27 13 18 33 23 21 21 16 11 11 28 35 32 31 80 63 36 27 28 36 42 41 38 33 20 14
7 14 11 14 12 12 14 23 44 51 50 52 51 43 36 37 32 32 29 22 18 20 22 26 26 19 10 9 25 27 30 24 46 79 54 35 32 37 39 44 47 42 33 12
29 21 15 12 4 17 16 14 21 20 35 40 37 28 25 35 29 36 31 26 26 22 23 32 30 22 10 12 22 25 28 22 36 40 40 89 58 43 40 42 47 49 44 25
42 57 44 31 18 6 19 16 19 16 14 9 15 33 37 12 19 29 30 23 15 53 33 36 21 6 29 18 13 18 25 31 31 37 35 39 58 70 51 49 44 42 35 34
33 40 43 44 34 32 21 22 23 22 8 8 11 36 37 13 360 13 22 342 343 35 27 35 352 319 37 21 346 15 27 29 33 32 32 37 47 45 55 65 56 57 49 41
43 24 41 52 49 38 40 31 31 34 22 8 12 16 13 41 3 333 348 55 41 18 342 23 330 19 21 43 344 29 15 31 37 36 26 33 37 41 56 53 50 38 50 49
68 55 28 45 52 52 45 39 40 37 38 29 26 12 336 17 3 317 349 50 26 7 346 300 5 0 44 356 321 26 11 22 32 44 34 25 23 37 44 46 49 46 27 42
30 40 68 37 50 55 55 50 47 43 36 27 357 13 15 18 1 46 63 26 351 5 328 6 26 1 345 323 10 2 4 13 17 19 46 63 48 29 17 36 43 46 37 28
39 29 43 46 41 35 50 41 46 44 43 41 30 23 30 42 18 10 351 10 354 349 333 20 354 338 326 294 328 343 335 359 349 12 5 39 102 117 18 42 41 46 31 24
20 32 21 7 8 34 38 37 49 47 47 49 56 37 26 14 25 27 18 25 20 333 351 9 345 334 327 320 328 323 313 317 316 312 320 127 124 270 33 337 159 194 76 344
5 2 24 10 23 34 29 12 24 45 39 33 25 25 29 27 22 356 8 2 32 357 5 8 346 343 351 348 339 331 318 306 307 292 290 258 219 219 221 251 277 229 240 254
357 2 6 39 27 16 23 12 4 38 8 18 24 19 10 1 10 356 4 12 10 2 5 354 351 350 355 357 347 342 334 323 315 295 286 289 248 218 220 227 226 229 221 230
170 301 355 48 31 22 28 14 2 6 24 14 356 6 2 357 352 343 21 356 6 5 358 338 347 356 354 348 357 356 347 344 355 336 328 322 332 321 264 258 238 228 224 230